Weather History for Sanford, FL

Change the Weather History Date:

Sunday, April 21, 2013

  Actual Average Record
Temperature  
Mean Temperature 70 °F -  
Max Temperature 79 °F 83 °F 93 °F (1968)
Min Temperature 62 °F 59 °F 50 °F (1983)
Cooling Degree Days 5    
Growing Degree Days 20 (Base 50)    
Moisture  
Dew Point 66 °F    
Average Humidity 86    
Maximum Humidity 100    
Minimum Humidity 65    
Precipitation  
Precipitation 0.11 in - - ()
Sea Level Pressure  
Sea Level Pressure 30.10 in    
Wind  
Wind Speed 9 mph (NNE)    
Max Wind Speed 14 mph    
Max Gust Speed -    
Visibility 10 miles    
Events Rain    
Averages and records for this station are not official NWS values.
T = Trace of Precipitation, MM = Missing Value Source: NWS Daily Summary

Daily Weather History Graph

Daily Weather History Graph

Search for Another Location

Airport:

Trip Planner

Search our weather history database for the weather conditions in past years. The results will help you decide how hot, cold, wet, or windy it might be!

Date:

Astronomy

Apr. 21, 2013 Rise Set
Actual Time 6:52 AM EDT 7:54 PM EDT
Civil Twilight 6:28 AM EDT 8:19 PM EDT
Nautical Twilight 5:59 AM EDT 8:48 PM EDT
Astronomical Twilight 5:29 AM EDT 9:18 PM EDT
Moon 3:57 PM EDT (4/21) 3:52 AM EDT (4/21)
Length of Visible Light 13h 50m
Length of Day
13h 01m
Waxing Gibbous, 79% of the Moon is Illuminated
Apr 21
Waxing Gibbous
Apr 25
Full
May 2
Last Quarter
May 9
New
May 18
First Quarter

Hourly Weather History & Observations

Time (EDT) Temp. Dew Point Humidity Pressure Visibility Wind Dir Wind Speed Gust Speed Precip Events Conditions
12:53 AM 62.1 °F 57.0 °F 84% 30.15 in 10.0 mi North 6.9 mph - N/A   Overcast
1:53 AM 62.1 °F 57.0 °F 84% 30.14 in 10.0 mi North 6.9 mph - N/A   Overcast
2:53 AM 63.0 °F 57.9 °F 84% 30.11 in 10.0 mi North 6.9 mph - N/A   Overcast
3:17 AM 64.4 °F 57.2 °F 77% 30.10 in 10.0 mi North 8.1 mph - N/A   Overcast
3:53 AM 64.0 °F 59.0 °F 84% 30.09 in 10.0 mi North 8.1 mph - N/A   Overcast
4:21 AM 64.4 °F 60.8 °F 88% 30.10 in 10.0 mi North 9.2 mph - N/A   Overcast
4:53 AM 64.0 °F 60.1 °F 87% 30.10 in 10.0 mi North 10.4 mph - N/A   Overcast
5:53 AM 64.9 °F 61.0 °F 87% 30.11 in 10.0 mi North 8.1 mph - N/A   Overcast
6:53 AM 64.9 °F 61.0 °F 87% 30.12 in 10.0 mi NNE 5.8 mph - 0.00 in Rain Light Rain
7:53 AM 66.0 °F 62.1 °F 87% 30.12 in 10.0 mi North 9.2 mph - 0.00 in   Overcast
7:57 AM 66.2 °F 62.6 °F 88% 30.12 in 10.0 mi North 6.9 mph - N/A   Overcast
8:53 AM 71.1 °F 64.0 °F 78% 30.13 in 10.0 mi NNE 8.1 mph - N/A   Partly Cloudy
9:53 AM 73.9 °F 66.0 °F 76% 30.13 in 10.0 mi NE 12.7 mph - N/A   Overcast
10:05 AM 73.4 °F 64.4 °F 73% 30.13 in 10.0 mi ENE 13.8 mph - N/A   Overcast
10:53 AM 75.0 °F 66.0 °F 73% 30.14 in 10.0 mi ENE 9.2 mph - N/A   Overcast
11:24 AM 73.4 °F 66.2 °F 78% 30.14 in 10.0 mi ENE 11.5 mph - N/A   Overcast
11:53 AM 78.1 °F 68.0 °F 71% 30.13 in 10.0 mi East 12.7 mph - N/A   Overcast
12:25 PM 78.8 °F 66.2 °F 65% 30.13 in 10.0 mi ESE 10.4 mph - N/A   Overcast
12:53 PM 78.1 °F 66.0 °F 66% 30.13 in 10.0 mi East 8.1 mph - N/A   Overcast
1:43 PM 75.2 °F 69.8 °F 83% 30.11 in 9.0 mi ENE 11.5 mph - 0.00 in Rain Rain
1:53 PM 73.9 °F 69.1 °F 85% 30.11 in 10.0 mi ENE 11.5 mph - 0.00 in Rain Light Rain
2:03 PM 75.2 °F 69.8 °F 83% 30.11 in 10.0 mi ENE 10.4 mph - 0.01 in Rain Light Rain
2:53 PM 75.0 °F 69.1 °F 82% 30.09 in 10.0 mi NNE 11.5 mph - 0.01 in   Overcast
3:53 PM 73.0 °F 70.0 °F 90% 30.06 in 6.0 mi NNE 8.1 mph - 0.03 in Rain Rain
4:04 PM 73.4 °F 69.8 °F 88% 30.06 in 10.0 mi NNE 11.5 mph - 0.00 in Rain Light Rain
4:14 PM 71.6 °F 69.8 °F 94% 30.05 in 10.0 mi NE 11.5 mph - 0.00 in Rain Light Rain
4:53 PM 72.0 °F 69.1 °F 91% 30.05 in 10.0 mi NNE 5.8 mph - 0.02 in   Overcast
5:53 PM 72.0 °F 70.0 °F 93% 30.05 in 10.0 mi North 8.1 mph - 0.00 in Rain Light Rain
6:33 PM 71.6 °F 69.8 °F 94% 30.08 in 10.0 mi North 3.5 mph - 0.00 in Rain Light Rain
6:53 PM 71.1 °F 70.0 °F 96% 30.07 in 4.0 mi North 8.1 mph - 0.03 in Rain Rain
7:09 PM 71.6 °F 69.8 °F 94% 30.08 in 8.0 mi North 10.4 mph - 0.01 in Rain Light Rain
7:53 PM 70.0 °F 69.1 °F 97% 30.08 in 10.0 mi NNE 4.6 mph - 0.02 in Rain Light Rain
8:14 PM 69.8 °F 68.0 °F 94% 30.08 in 10.0 mi NE 8.1 mph - 0.00 in   Mostly Cloudy
8:51 PM 69.8 °F 69.8 °F 100% 30.10 in 10.0 mi North 9.2 mph - 0.00 in   Overcast
8:53 PM 70.0 °F 69.1 °F 97% 30.10 in 10.0 mi North 9.2 mph - 0.00 in   Overcast
9:53 PM 69.1 °F 68.0 °F 96% 30.12 in 10.0 mi North 8.1 mph - N/A   Overcast
10:53 PM 69.1 °F 68.0 °F 96% 30.11 in 10.0 mi NE 4.6 mph - 0.00 in Rain Light Rain
11:28 PM 69.8 °F 66.2 °F 88% 30.09 in 10.0 mi East 9.2 mph - 0.00 in Rain Light Rain
11:53 PM 69.1 °F 68.0 °F 96% 30.06 in 10.0 mi East 11.5 mph - 0.00 in   Mostly Cloudy